Location: Unspecified
(0.0000°N, 0.0000°E)
Time: 17:09:47
(UTC+00:00)

STARLINK-1274 - Visible Passes

Search period start: 08 March 2026 00:00
Search period end: 18 March 2026 00:00
Orbit: 424 x 429 km, 53.0° (Epoch: 8 March)

Date Brightness Start Highest point End Pass type
(mag) Time Alt. Az. Time Alt. Az. Time Alt. Az.
8 Mar 5.1 19:33:26 10° S 19:34:45 20° S 19:34:45 20° S visible
9 Mar 4.9 18:49:00 10° SSE 18:51:11 16° SE 18:52:15 14° ESE visible
10 Mar 4.6 19:39:09 10° WSW 19:42:14 33° NW 19:42:52 30° NNW visible
11 Mar 3.1 18:53:07 10° SW 18:56:31 81° NW 18:59:52 10° NNE visible
13 Mar 5.4 05:44:38 10° N 05:47:32 26° NE 05:50:25 10° ESE visible
13 Mar 6.1 18:59:17 10° W 19:01:03 14° NW 19:02:50 10° NNW visible
14 Mar 6.2 04:59:50 10° NNE 05:01:19 12° NE 05:02:49 10° E visible
16 Mar 3.3 05:02:38 18° NNW 05:04:56 69° NE 05:08:18 10° SE visible
17 Mar 5.4 04:19:07 24° E 04:19:07 24° E 04:21:08 10° ESE visible
